HK6RM-19 Weather Reports


time (UTC)temp
C
wind
direction
speed
KPH
gust
KPH
rain 1hr
cm
rain 24hr
cm
rain mn
cm
humidity
%
barometer
mb
20260504140356 17 120 4.8 0.0 0.00 0.00 0.00 10 1016.0
20260504130755 15 0 1.6 0.0 0.00 0.00 0.00 10 1016.0
20260504110145 11 300 12.9 0.0 0.00 0.00 0.00 82 1017.0
20260504100543 11 300 12.9 0.0 0.00 0.00 0.00 82 1016.0
20260504081337 11 300 12.9 0.0 0.00 0.00 0.00 82 1016.0
20260504070333 11 300 12.9 0.0 0.03 0.00 0.00 82 1016.0
20260504045720 11 300 12.9 0.0 0.23 0.00 0.00 82 1017.0
20260504044320 11 300 12.9 0.0 0.20 0.00 0.00 82 1017.0
20260504042919 11 300 12.9 0.0 0.03 0.00 0.00 82 1018.0
20260504041517 11 300 12.9 0.0 0.03 0.00 0.00 82 1018.0
20260504040117 11 300 12.9 0.0 0.05 0.00 0.00 82 1018.0
20260504034716 11 300 12.9 0.0 0.13 0.00 0.00 82 1018.0
20260504033311 11 300 12.9 0.0 0.08 0.00 0.00 82 1018.0
20260504031909 11 300 12.9 0.0 0.00 0.00 0.00 82 1018.0
20260504030509 11 300 12.9 0.0 0.00 0.00 0.00 82 1018.0
20260504025103 11 300 12.9 0.0 0.00 0.00 0.00 82 1018.0
20260504023703 11 300 12.9 0.0 0.00 0.00 0.00 82 1018.0
20260504022258 11 300 12.9 0.0 0.03 0.00 0.00 82 1017.0
20260504020857 12 300 12.9 0.0 0.00 0.00 0.00 82 1017.0
20260504015457 12 300 12.9 0.0 0.00 0.00 0.00 82 1017.0
20260504014055 12 300 12.9 0.0 0.00 0.00 0.00 81 1017.0
20260504012654 12 300 12.9 0.0 0.00 0.00 0.00 80 1016.0
20260504011253 12 300 12.9 0.0 0.00 0.00 0.00 78 1016.0
20260504005853 12 300 12.9 0.0 0.00 0.00 0.00 78 1016.0
20260504004452 12 300 12.9 0.0 0.00 0.00 0.00 78 1015.0
20260504003052 12 300 12.9 0.0 0.00 0.00 0.00 77 1015.0
20260504001651 12 300 12.9 0.0 0.00 0.00 0.00 77 1014.0
20260504000250 13 300 12.9 0.0 0.00 0.00 0.00 77 1014.0
20260503234850 13 300 12.9 0.0 0.00 0.00 0.00 77 1014.0
20260503233449 14 300 12.9 0.0 0.00 0.00 0.00 77 1014.0
20260503232049 14 300 12.9 0.0 0.00 0.00 0.00 77 1013.0
20260503230648 15 300 12.9 0.0 0.00 0.00 0.00 77 1013.0
20260503225248 15 300 12.9 0.0 0.00 0.00 0.00 77 1013.0
20260503223848 15 300 12.9 0.0 0.00 0.00 0.00 77 1013.0
20260503222447 15 300 12.9 0.0 0.00 0.00 0.00 77 1012.0
20260503221047 15 300 12.9 0.0 0.00 0.00 0.00 77 1012.0
20260503215644 15 300 12.9 0.0 0.00 0.00 0.00 77 1012.0
20260503214244 16 300 12.9 0.0 0.00 0.00 0.00 77 1012.0
20260503212838 16 300 12.9 0.0 0.00 0.00 0.00 77 1011.0
20260503211438 16 300 12.9 0.0 0.00 0.00 0.00 77 1011.0
20260503210037 17 300 12.9 0.0 0.00 0.00 0.00 77 1011.0
20260503204636 17 300 12.9 0.0 0.00 0.00 0.00 76 1011.0
20260503203235 17 300 12.9 0.0 0.00 0.00 0.00 75 1011.0
20260503201835 17 300 12.9 0.0 0.00 0.00 0.00 75 1011.0
20260503200433 18 300 12.9 0.0 0.00 0.00 0.00 74 1011.0
20260503195031 18 300 12.9 0.0 0.00 0.00 0.00 74 1011.0
20260503193627 18 300 12.9 0.0 0.00 0.00 0.00 75 1012.0
20260503192226 18 300 12.9 0.0 0.00 0.00 0.00 77 1012.0
20260503190826 18 300 12.9 0.0 0.00 0.00 0.00 77 1012.0
20260503185425 18 300 12.9 0.0 0.00 0.00 0.00 77 1012.0
20260503184025 18 300 12.9 0.0 0.00 0.00 0.00 77 1012.0
20260503182623 18 300 12.9 0.0 0.00 0.00 0.00 79 1013.0
20260503181222 18 300 12.9 0.0 0.00 0.00 0.00 79 1013.0
20260503175822 18 300 12.9 0.0 0.00 0.00 0.00 79 1013.0
20260503174420 18 300 12.9 0.0 0.00 0.00 0.00 80 1014.0
20260503173020 18 300 12.9 0.0 0.00 0.00 0.00 80 1014.0
20260503171618 18 300 12.9 0.0 0.00 0.00 0.00 80 1015.0
20260503170217 18 300 12.9 0.0 0.00 0.00 0.00 81 1015.0